• In Moldova, Republic
  • List of Countries
  • For 7 days
  • Water Temperature
  • Satellite Maps
  • Weather Map
  • Weather Widgets
  • user-avatar
    Login

    Hourly Weather Darwin

    Today, 20 February, Monday

    Time Temperature Precipitation Wind Pressure Humidity
    00:00 +29°C° 0.2 mm 4 mps 755 mmHg 89%
    01:00 +29°C° 0 mm 4 mps 755 mmHg 89%
    02:00 +28°C° 0 mm 4 mps 755 mmHg 90%
    03:00 +28°C° 0 mm 4 mps 755 mmHg 90%
    04:00 +28°C° 0.3 mm 4 mps 755 mmHg 91%
    05:00 +28°C° 0.3 mm 3 mps 755 mmHg 91%
    06:00 +28°C° 0.3 mm 3 mps 755 mmHg 91%
    07:00 +29°C° 0 mm 3 mps 755 mmHg 85%
    08:00 +30°C° 0 mm 4 mps 756 mmHg 78%
    09:00 +32°C° 0 mm 2 mps 756 mmHg 72%
    10:00 +34°C° 0.2 mm 2 mps 756 mmHg 65%
    11:00 +35°C° 0.2 mm 2 mps 756 mmHg 57%
    12:00 +36°C° 0.2 mm 2 mps 756 mmHg 50%
    13:00 +36°C° 0 mm 3 mps 755 mmHg 50%
    14:00 +37°C° 0 mm 3 mps 755 mmHg 49%
    15:00 +37°C° 0 mm 3 mps 754 mmHg 49%
    16:00 +36°C° 0 mm 3 mps 754 mmHg 53%
    17:00 +35°C° 0 mm 3 mps 754 mmHg 58%
    18:00 +34°C° 0 mm 4 mps 755 mmHg 63%
    19:00 +33°C° 0 mm 4 mps 755 mmHg 64%
    20:00 +30°C° 0 mm 3 mps 755 mmHg 65%
    21:00 +29°C° 0 mm 3 mps 756 mmHg 66%
    22:00 +28°C° 0 mm 3 mps 756 mmHg 64%
    23:00 +28°C° 0 mm 3 mps 756 mmHg 61%

    Tomorrow, 21 February, Tuesday

    Time Temperature Precipitation Wind Pressure Humidity
    00:00 +27°C° 0 mm 3 mps 756 mmHg 59%
    01:00 +27°C° 0 mm 2 mps 756 mmHg 58%
    02:00 +26°C° 0 mm 2 mps 756 mmHg 58%
    03:00 +26°C° 0 mm 2 mps 756 mmHg 57%
    04:00 +26°C° 0 mm 2 mps 756 mmHg 56%
    05:00 +25°C° 0 mm 2 mps 756 mmHg 55%
    06:00 +25°C° 0 mm 2 mps 756 mmHg 53%
    07:00 +27°C° 0 mm 1 mps 756 mmHg 51%
    08:00 +29°C° 0 mm 1 mps 757 mmHg 48%
    09:00 +31°C° 0 mm 1 mps 757 mmHg 46%
    10:00 +34°C° 0 mm 2 mps 757 mmHg 41%
    11:00 +35°C° 0 mm 2 mps 757 mmHg 37%
    12:00 +37°C° 0 mm 3 mps 757 mmHg 32%
    13:00 +37°C° 0 mm 3 mps 756 mmHg 33%
    14:00 +37°C° 0 mm 3 mps 756 mmHg 33%
    15:00 +37°C° 0 mm 4 mps 755 mmHg 33%
    16:00 +36°C° 0 mm 4 mps 756 mmHg 42%
    17:00 +34°C° 0 mm 4 mps 756 mmHg 51%
    18:00 +32°C° 0 mm 4 mps 756 mmHg 59%
    19:00 +30°C° 0 mm 4 mps 756 mmHg 63%
    20:00 +30°C° 0 mm 4 mps 756 mmHg 67%
    21:00 +29°C° 0 mm 4 mps 757 mmHg 71%
    22:00 +29°C° 0 mm 3 mps 757 mmHg 72%
    23:00 +28°C° 0 mm 3 mps 757 mmHg 73%

    Day after tomorrow, 22 February, Wednesday

    Time Temperature Precipitation Wind Pressure Humidity
    00:00 +28°C° 0 mm 3 mps 757 mmHg 74%
    01:00 +28°C° 0 mm 3 mps 757 mmHg 73%
    02:00 +28°C° 0 mm 3 mps 756 mmHg 73%
    03:00 +27°C° 0 mm 3 mps 756 mmHg 72%
    04:00 +27°C° 0 mm 3 mps 756 mmHg 72%
    05:00 +27°C° 0 mm 4 mps 756 mmHg 73%
    06:00 +27°C° 0 mm 4 mps 757 mmHg 73%
    07:00 +29°C° 0 mm 4 mps 757 mmHg 71%
    08:00 +30°C° 0 mm 4 mps 758 mmHg 69%
    09:00 +33°C° 0 mm 4 mps 758 mmHg 67%
    10:00 +34°C° 0 mm 4 mps 758 mmHg 61%
    11:00 +35°C° 0 mm 4 mps 757 mmHg 56%
    12:00 +37°C° 0 mm 4 mps 757 mmHg 50%
    13:00 +37°C° 0 mm 5 mps 756 mmHg 49%
    14:00 +37°C° 0 mm 5 mps 755 mmHg 48%
    15:00 +37°C° 0 mm 5 mps 755 mmHg 47%
    16:00 +36°C° 0 mm 5 mps 755 mmHg 54%
    17:00 +35°C° 0 mm 5 mps 755 mmHg 60%
    18:00 +34°C° 0 mm 5 mps 754 mmHg 67%
    19:00 +33°C° 0 mm 5 mps 755 mmHg 70%
    20:00 +32°C° 0 mm 5 mps 756 mmHg 73%
    21:00 +30°C° 0 mm 4 mps 756 mmHg 77%
    22:00 +30°C° 0 mm 4 mps 756 mmHg 77%
    23:00 +30°C° 0 mm 4 mps 756 mmHg 78%

    23 February, Thursday

    Time Temperature Precipitation Wind Pressure Humidity
    00:00 +29°C° 0 mm 4 mps 756 mmHg 79%
    01:00 +29°C° 0.3 mm 4 mps 756 mmHg 80%
    02:00 +29°C° 0.3 mm 4 mps 755 mmHg 82%
    03:00 +29°C° 0.3 mm 3 mps 755 mmHg 83%
    04:00 +28°C° 0.3 mm 3 mps 755 mmHg 85%
    05:00 +28°C° 0.3 mm 4 mps 755 mmHg 86%
    06:00 +28°C° 0.3 mm 4 mps 756 mmHg 88%
    07:00 +29°C° 0.3 mm 3 mps 756 mmHg 83%
    08:00 +30°C° 0.3 mm 3 mps 756 mmHg 77%
    09:00 +33°C° 0.3 mm 3 mps 757 mmHg 72%
    10:00 +34°C° 0.1 mm 4 mps 756 mmHg 65%
    11:00 +36°C° 0.1 mm 4 mps 756 mmHg 57%
    12:00 +37°C° 0.1 mm 4 mps 756 mmHg 50%
    13:00 +37°C° 0.2 mm 4 mps 755 mmHg 51%
    14:00 +37°C° 0.2 mm 4 mps 754 mmHg 53%
    15:00 +36°C° 0.2 mm 4 mps 754 mmHg 55%
    16:00 +35°C° 0.4 mm 4 mps 754 mmHg 61%
    17:00 +34°C° 0.4 mm 4 mps 754 mmHg 68%
    18:00 +33°C° 0.4 mm 3 mps 754 mmHg 74%
    19:00 +31°C° 0.7 mm 3 mps 755 mmHg 76%
    20:00 +31°C° 0.7 mm 3 mps 755 mmHg 79%
    21:00 +30°C° 0.7 mm 3 mps 756 mmHg 81%
    22:00 +29°C° 1.4 mm 2 mps 756 mmHg 82%
    23:00 +29°C° 1.4 mm 2 mps 756 mmHg 84%

    24 February, Friday

    Time Temperature Precipitation Wind Pressure Humidity
    00:00 +29°C° 1.4 mm 2 mps 756 mmHg 85%
    01:00 +29°C° 0.6 mm 2 mps 756 mmHg 85%
    02:00 +28°C° 0.6 mm 2 mps 755 mmHg 86%
    03:00 +28°C° 0.6 mm 2 mps 755 mmHg 87%
    04:00 +28°C° 0 mm 2 mps 755 mmHg 88%
    05:00 +28°C° 0 mm 2 mps 755 mmHg 90%
    06:00 +27°C° 0 mm 2 mps 756 mmHg 92%
    07:00 +28°C° 0.7 mm 2 mps 756 mmHg 88%
    08:00 +29°C° 0.7 mm 2 mps 756 mmHg 85%
    09:00 +30°C° 0.7 mm 2 mps 757 mmHg 81%
    10:00 +31°C° 2.3 mm 2 mps 757 mmHg 78%
    11:00 +32°C° 2.3 mm 2 mps 756 mmHg 75%
    12:00 +34°C° 2.3 mm 2 mps 756 mmHg 72%
    13:00 +32°C° 2.4 mm 2 mps 756 mmHg 72%
    14:00 +33°C° 2.4 mm 3 mps 755 mmHg 73%
    15:00 +33°C° 2.4 mm 3 mps 755 mmHg 73%
    16:00 +33°C° 1.2 mm 3 mps 755 mmHg 76%
    17:00 +31°C° 1.2 mm 3 mps 755 mmHg 78%
    18:00 +30°C° 1.2 mm 2 mps 756 mmHg 80%
    19:00 +30°C° 0.7 mm 2 mps 756 mmHg 82%
    20:00 +29°C° 0.7 mm 2 mps 757 mmHg 83%
    21:00 +28°C° 0.7 mm 2 mps 757 mmHg 85%
    22:00 +28°C° 0.3 mm 3 mps 757 mmHg 86%
    23:00 +28°C° 0.3 mm 3 mps 757 mmHg 86%

    25 February, Saturday

    Time Temperature Precipitation Wind Pressure Humidity
    00:00 +28°C° 0.3 mm 3 mps 757 mmHg 87%
    01:00 +28°C° 0.6 mm 3 mps 757 mmHg 88%
    02:00 +27°C° 0.6 mm 3 mps 756 mmHg 88%
    03:00 +27°C° 0.6 mm 3 mps 756 mmHg 88%
    04:00 +27°C° 0 mm 3 mps 757 mmHg 89%
    05:00 +27°C° 0 mm 3 mps 757 mmHg 89%
    06:00 +27°C° 0 mm 3 mps 757 mmHg 90%
    07:00 +28°C° 0 mm 3 mps 758 mmHg 85%
    08:00 +30°C° 0 mm 3 mps 758 mmHg 80%
    09:00 +31°C° 0 mm 3 mps 759 mmHg 75%
    10:00 +33°C° 0.2 mm 3 mps 758 mmHg 72%
    11:00 +33°C° 0.2 mm 3 mps 758 mmHg 69%
    12:00 +34°C° 0.2 mm 3 mps 757 mmHg 66%
    13:00 +34°C° 0.2 mm 2 mps 757 mmHg 64%
    14:00 +35°C° 0.2 mm 2 mps 756 mmHg 63%
    15:00 +35°C° 0.2 mm 2 mps 756 mmHg 61%
    16:00 +34°C° 0.1 mm 2 mps 756 mmHg 64%
    17:00 +33°C° 0.1 mm 1 mps 756 mmHg 67%
    18:00 +32°C° 0.1 mm 1 mps 756 mmHg 70%
    19:00 +31°C° 0 mm 1 mps 756 mmHg 73%
    20:00 +30°C° 0 mm 1 mps 757 mmHg 77%
    21:00 +28°C° 0 mm 1 mps 757 mmHg 80%
    22:00 +28°C° 0 mm 2 mps 757 mmHg 82%
    23:00 +28°C° 0 mm 2 mps 757 mmHg 83%
    Show more